When you browse on this site, cookies collect data to enhance your experience and personalize the content and advertising you see.
Visit our Privacy Policy to learn more. By continuing to use the site, you agree to this use of cookies and data.
  • In United Kingdom
  • List of Countries
  • For 7 days
  • Water Temperature
  • Weather Map
  • Weather Widgets
  • user-avatar
    Login

    Hourly Weather Stafford

    Today, 13 November, Wednesday

    Time Temperature Precipitation Wind Pressure Humidity
    00:00 +3°C° 0 mm 3 mps 742 mmHg 92%
    01:00 +3°C° 0 mm 3 mps 742 mmHg 93%
    02:00 +3°C° 0 mm 3 mps 742 mmHg 93%
    03:00 +3°C° 0 mm 3 mps 742 mmHg 93%
    04:00 +2°C° 0 mm 3 mps 742 mmHg 93%
    05:00 +2°C° 0 mm 3 mps 742 mmHg 93%
    06:00 +2°C° 0 mm 3 mps 742 mmHg 93%
    07:00 +2°C° 0 mm 3 mps 742 mmHg 92%
    08:00 +3°C° 0 mm 3 mps 742 mmHg 91%
    09:00 +4°C° 0 mm 2 mps 741 mmHg 90%
    10:00 +5°C° 0 mm 2 mps 741 mmHg 86%
    11:00 +5°C° 0 mm 3 mps 740 mmHg 82%
    12:00 +7°C° 0 mm 3 mps 740 mmHg 77%
    13:00 +5°C° 0 mm 3 mps 739 mmHg 78%
    14:00 +5°C° 0 mm 3 mps 738 mmHg 79%
    15:00 +5°C° 0 mm 3 mps 737 mmHg 81%
    16:00 +4°C° 0 mm 3 mps 736 mmHg 83%
    17:00 +4°C° 0 mm 4 mps 735 mmHg 85%
    18:00 +3°C° 0 mm 4 mps 735 mmHg 88%
    19:00 +2°C° 0 mm 5 mps 734 mmHg 88%
    20:00 +2°C° 0 mm 5 mps 734 mmHg 88%
    21:00 +2°C° 0 mm 6 mps 734 mmHg 88%
    22:00 +2°C° 0.1 mm 6 mps 734 mmHg 88%
    23:00 +2°C° 0.1 mm 6 mps 734 mmHg 87%

    Tomorrow, 14 November, Thursday

    Time Temperature Precipitation Wind Pressure Humidity
    00:00 +2°C° 0.1 mm 7 mps 735 mmHg 87%
    01:00 +2°C° 0 mm 7 mps 735 mmHg 87%
    02:00 +2°C° 0 mm 7 mps 735 mmHg 88%
    03:00 +2°C° 0 mm 7 mps 735 mmHg 89%
    04:00 +2°C° 0 mm 7 mps 736 mmHg 88%
    05:00 +2°C° 0 mm 7 mps 736 mmHg 88%
    06:00 +2°C° 0 mm 7 mps 737 mmHg 87%
    07:00 +1°C° 0.1 mm 8 mps 738 mmHg 88%
    08:00 +2°C° 0.1 mm 8 mps 738 mmHg 88%
    09:00 +2°C° 0.1 mm 9 mps 739 mmHg 89%
    10:00 +2°C° 0.6 mm 9 mps 739 mmHg 87%
    11:00 +2°C° 0.6 mm 9 mps 740 mmHg 85%
    12:00 +2°C° 0.6 mm 9 mps 741 mmHg 83%
    13:00 +2°C° 0.6 mm 9 mps 741 mmHg 84%
    14:00 +2°C° 0.6 mm 9 mps 741 mmHg 85%
    15:00 +1°C° 0.6 mm 8 mps 741 mmHg 86%
    16:00 +2°C° 0.4 mm 8 mps 742 mmHg 87%
    17:00 +3°C° 0.4 mm 7 mps 742 mmHg 89%
    18:00 +3°C° 0.4 mm 7 mps 743 mmHg 90%
    19:00 +3°C° 0.6 mm 6 mps 743 mmHg 90%
    20:00 +3°C° 0.6 mm 6 mps 744 mmHg 91%
    21:00 +3°C° 0.6 mm 5 mps 744 mmHg 91%
    22:00 +3°C° 0.3 mm 5 mps 744 mmHg 91%
    23:00 +3°C° 0.3 mm 5 mps 745 mmHg 91%

    Day after tomorrow, 15 November, Friday

    Time Temperature Precipitation Wind Pressure Humidity
    00:00 +3°C° 0.3 mm 5 mps 745 mmHg 91%
    01:00 +2°C° 0 mm 5 mps 745 mmHg 91%
    02:00 +2°C° 0 mm 5 mps 746 mmHg 91%
    03:00 +2°C° 0 mm 5 mps 746 mmHg 91%
    04:00 +2°C° 0 mm 5 mps 747 mmHg 92%
    05:00 +3°C° 0 mm 4 mps 747 mmHg 92%
    06:00 +3°C° 0 mm 4 mps 748 mmHg 93%
    07:00 +3°C° 0 mm 5 mps 749 mmHg 90%
    08:00 +3°C° 0 mm 5 mps 749 mmHg 89%
    09:00 +3°C° 0 mm 5 mps 750 mmHg 88%
    10:00 +5°C° 0 mm 5 mps 749 mmHg 85%
    11:00 +5°C° 0 mm 6 mps 749 mmHg 82%
    12:00 +7°C° 0 mm 6 mps 749 mmHg 79%
    13:00 +5°C° 0.1 mm 6 mps 749 mmHg 81%
    14:00 +5°C° 0.1 mm 6 mps 749 mmHg 83%
    15:00 +5°C° 0.1 mm 6 mps 748 mmHg 85%
    16:00 +5°C° 0.1 mm 6 mps 748 mmHg 85%
    17:00 +4°C° 0.1 mm 6 mps 748 mmHg 86%
    18:00 +4°C° 0.1 mm 6 mps 748 mmHg 87%
    19:00 +4°C° 0 mm 6 mps 748 mmHg 86%
    20:00 +4°C° 0 mm 6 mps 748 mmHg 86%
    21:00 +4°C° 0 mm 6 mps 747 mmHg 85%
    22:00 +4°C° 0 mm 6 mps 747 mmHg 85%
    23:00 +4°C° 0 mm 6 mps 747 mmHg 84%

    16 November, Saturday

    Time Temperature Precipitation Wind Pressure Humidity
    00:00 +4°C° 0 mm 7 mps 746 mmHg 83%
    01:00 +4°C° 0 mm 7 mps 746 mmHg 84%
    02:00 +3°C° 0 mm 7 mps 746 mmHg 84%
    03:00 +3°C° 0 mm 7 mps 745 mmHg 85%
    04:00 +3°C° 0.3 mm 7 mps 745 mmHg 86%
    05:00 +4°C° 0.3 mm 7 mps 745 mmHg 88%
    06:00 +4°C° 0.3 mm 6 mps 745 mmHg 89%
    07:00 +4°C° 0.2 mm 6 mps 745 mmHg 90%
    08:00 +5°C° 0.2 mm 5 mps 745 mmHg 90%
    09:00 +5°C° 0.2 mm 4 mps 745 mmHg 91%
    10:00 +5°C° 0.1 mm 3 mps 745 mmHg 90%
    11:00 +5°C° 0.1 mm 3 mps 745 mmHg 89%
    12:00 +7°C° 0.1 mm 2 mps 745 mmHg 88%
    13:00 +7°C° 0 mm 2 mps 744 mmHg 88%
    14:00 +7°C° 0 mm 2 mps 744 mmHg 88%
    15:00 +7°C° 0 mm 2 mps 744 mmHg 88%
    16:00 +7°C° 0 mm 2 mps 744 mmHg 89%
    17:00 +7°C° 0 mm 2 mps 744 mmHg 90%
    18:00 +6°C° 0 mm 2 mps 745 mmHg 91%
    19:00 +6°C° 0 mm 2 mps 745 mmHg 92%
    20:00 +6°C° 0 mm 2 mps 745 mmHg 92%
    21:00 +6°C° 0 mm 2 mps 745 mmHg 92%
    22:00 +6°C° 0.3 mm 2 mps 745 mmHg 93%
    23:00 +6°C° 0.3 mm 2 mps 745 mmHg 93%

    17 November, Sunday

    Time Temperature Precipitation Wind Pressure Humidity
    00:00 +6°C° 0.3 mm 2 mps 745 mmHg 93%
    01:00 +5°C° 0.4 mm 3 mps 745 mmHg 94%
    02:00 +5°C° 0.4 mm 3 mps 745 mmHg 94%
    03:00 +5°C° 0.4 mm 3 mps 745 mmHg 94%
    04:00 +5°C° 0.5 mm 3 mps 746 mmHg 94%
    05:00 +5°C° 0.5 mm 3 mps 746 mmHg 94%
    06:00 +5°C° 0.5 mm 3 mps 746 mmHg 94%
    07:00 +5°C° 0.3 mm 3 mps 746 mmHg 94%
    08:00 +5°C° 0.3 mm 3 mps 747 mmHg 93%
    09:00 +5°C° 0.3 mm 3 mps 747 mmHg 93%
    10:00 +5°C° 0.1 mm 3 mps 747 mmHg 91%
    11:00 +7°C° 0.1 mm 3 mps 747 mmHg 89%
    12:00 +7°C° 0.1 mm 3 mps 747 mmHg 87%
    13:00 +7°C° 0 mm 3 mps 747 mmHg 87%
    14:00 +7°C° 0 mm 3 mps 748 mmHg 86%
    15:00 +7°C° 0 mm 3 mps 748 mmHg 86%
    16:00 +7°C° 0 mm 3 mps 748 mmHg 87%
    17:00 +6°C° 0 mm 2 mps 748 mmHg 88%
    18:00 +6°C° 0 mm 2 mps 748 mmHg 90%
    19:00 +5°C° 0 mm 2 mps 748 mmHg 91%
    20:00 +5°C° 0 mm 2 mps 748 mmHg 92%
    21:00 +4°C° 0 mm 2 mps 749 mmHg 93%
    22:00 +5°C° 0 mm 1 mps 749 mmHg 93%
    23:00 +5°C° 0 mm 1 mps 748 mmHg 93%

    18 November, Monday

    Time Temperature Precipitation Wind Pressure Humidity
    00:00 +4°C° 0 mm 0 mps 748 mmHg 93%
    01:00 +4°C° 0 mm 0 mps 748 mmHg 93%
    02:00 +4°C° 0 mm 0 mps 748 mmHg 92%
    03:00 +4°C° 0 mm 0 mps 748 mmHg 92%
    04:00 +4°C° 0 mm 0 mps 748 mmHg 93%
    05:00 +4°C° 0 mm 0 mps 748 mmHg 93%
    06:00 +4°C° 0 mm 0 mps 748 mmHg 93%
    07:00 +5°C° 0 mm 1 mps 748 mmHg 93%
    08:00 +5°C° 0 mm 1 mps 748 mmHg 94%
    09:00 +4°C° 0 mm 2 mps 748 mmHg 94%
    10:00 +5°C° 0 mm 2 mps 747 mmHg 91%
    11:00 +6°C° 0 mm 2 mps 747 mmHg 88%
    12:00 +5°C° 0 mm 3 mps 747 mmHg 85%
    13:00 +5°C° 0 mm 3 mps 747 mmHg 85%
    14:00 +5°C° 0 mm 3 mps 746 mmHg 85%
    15:00 +5°C° 0 mm 3 mps 746 mmHg 86%
    16:00 +5°C° 0 mm 3 mps 746 mmHg 86%
    17:00 +4°C° 0 mm 3 mps 746 mmHg 87%
    18:00 +4°C° 0 mm 3 mps 745 mmHg 88%
    19:00 +4°C° 0 mm 3 mps 745 mmHg 89%
    20:00 +4°C° 0 mm 3 mps 745 mmHg 90%
    21:00 +4°C° 0 mm 4 mps 745 mmHg 91%
    22:00 +4°C° 0 mm 4 mps 744 mmHg 91%
    23:00 +3°C° 0 mm 5 mps 744 mmHg 92%
    Show more